• In Hungary
  • List of Countries
  • For 7 days
  • Water Temperature
  • Satellite Maps
  • Weather Map
  • News
  • Weather Widgets
  • user-avatar
    Login

    Hourly Weather Gogolevka

    Today, 25 February, Sunday

    Time Temperature Precipitation Wind Pressure Humidity
    00:00 -20°C° 0 mm 2 mps 752 mmHg 96%
    01:00 -21°C° 0 mm 2 mps 752 mmHg 97%
    02:00 -20°C° 0 mm 2 mps 752 mmHg 96%
    03:00 -20°C° 0 mm 2 mps 752 mmHg 97%
    04:00 -20°C° 0 mm 2 mps 752 mmHg 98%
    05:00 -21°C° 0 mm 2 mps 752 mmHg 98%
    06:00 -20°C° 0 mm 2 mps 752 mmHg 98%
    07:00 -20°C° 0 mm 2 mps 752 mmHg 98%
    08:00 -20°C° 0 mm 2 mps 752 mmHg 97%
    09:00 -18°C° 0 mm 2 mps 752 mmHg 95%
    10:00 -17°C° 0 mm 2 mps 752 mmHg 93%
    11:00 -16°C° 0 mm 2 mps 752 mmHg 91%
    12:00 -15°C° 0 mm 2 mps 752 mmHg 88%
    13:00 -15°C° 0 mm 2 mps 752 mmHg 86%
    14:00 -13°C° 0 mm 2 mps 751 mmHg 80%
    15:00 -14°C° 0 mm 2 mps 751 mmHg 83%
    16:00 -15°C° 0 mm 2 mps 751 mmHg 86%
    17:00 -16°C° 0 mm 2 mps 751 mmHg 89%
    18:00 -17°C° 0 mm 2 mps 751 mmHg 91%
    19:00 -18°C° 0 mm 2 mps 751 mmHg 93%
    20:00 -19°C° 0 mm 2 mps 751 mmHg 94%
    21:00 -18°C° 0 mm 1 mps 751 mmHg 95%
    22:00 -18°C° 0 mm 1 mps 751 mmHg 96%
    23:00 -19°C° 0 mm 1 mps 752 mmHg 97%

    Tomorrow, 26 February, Monday

    Time Temperature Precipitation Wind Pressure Humidity
    00:00 -19°C° 0 mm 1 mps 752 mmHg 98%
    01:00 -20°C° 0 mm 1 mps 752 mmHg 98%
    02:00 -20°C° 0 mm 1 mps 752 mmHg 98%
    03:00 -20°C° 0 mm 1 mps 752 mmHg 98%
    04:00 -20°C° 0 mm 1 mps 751 mmHg 98%
    05:00 -21°C° 0 mm 1 mps 751 mmHg 98%
    06:00 -20°C° 0 mm 1 mps 751 mmHg 98%
    07:00 -20°C° 0 mm 1 mps 751 mmHg 98%
    08:00 -20°C° 0 mm 1 mps 751 mmHg 97%
    09:00 -19°C° 0 mm 1 mps 751 mmHg 94%
    10:00 -18°C° 0 mm 1 mps 751 mmHg 92%
    11:00 -16°C° 0 mm 1 mps 751 mmHg 89%
    12:00 -16°C° 0 mm 1 mps 751 mmHg 86%
    13:00 -15°C° 0 mm 0 mps 751 mmHg 84%
    14:00 -14°C° 0 mm 0 mps 751 mmHg 82%
    15:00 -15°C° 0 mm 0 mps 751 mmHg 84%
    16:00 -16°C° 0 mm 1 mps 751 mmHg 87%
    17:00 -17°C° 0 mm 1 mps 751 mmHg 89%
    18:00 -18°C° 0 mm 1 mps 751 mmHg 91%
    19:00 -19°C° 0 mm 1 mps 752 mmHg 93%
    20:00 -20°C° 0 mm 1 mps 752 mmHg 94%
    21:00 -21°C° 0 mm 1 mps 752 mmHg 95%
    22:00 -21°C° 0 mm 1 mps 752 mmHg 95%
    23:00 -21°C° 0 mm 1 mps 752 mmHg 96%

    Day after tomorrow, 27 February, Tuesday

    Time Temperature Precipitation Wind Pressure Humidity
    00:00 -25°C° 0 mm 2 mps 753 mmHg 96%
    01:00 -25°C° 0 mm 2 mps 753 mmHg 96%
    02:00 -26°C° 0 mm 2 mps 753 mmHg 96%
    03:00 -26°C° 0 mm 2 mps 754 mmHg 97%
    04:00 -26°C° 0 mm 2 mps 754 mmHg 97%
    05:00 -27°C° 0 mm 2 mps 754 mmHg 97%
    06:00 -26°C° 0 mm 2 mps 754 mmHg 97%
    07:00 -26°C° 0 mm 2 mps 755 mmHg 97%
    08:00 -27°C° 0 mm 3 mps 755 mmHg 97%
    09:00 -25°C° 0 mm 3 mps 755 mmHg 95%
    10:00 -23°C° 0 mm 3 mps 756 mmHg 94%
    11:00 -22°C° 0 mm 3 mps 756 mmHg 92%
    12:00 -22°C° 0 mm 4 mps 756 mmHg 90%
    13:00 -20°C° 0 mm 4 mps 756 mmHg 89%
    14:00 -18°C° 0 mm 4 mps 756 mmHg 87%
    15:00 -19°C° 0 mm 4 mps 756 mmHg 88%
    16:00 -19°C° 0 mm 4 mps 757 mmHg 89%
    17:00 -20°C° 0 mm 4 mps 757 mmHg 89%
    18:00 -21°C° 0 mm 5 mps 757 mmHg 90%
    19:00 -22°C° 0 mm 5 mps 757 mmHg 91%
    20:00 -22°C° 0 mm 5 mps 758 mmHg 91%
    21:00 -22°C° 0 mm 5 mps 758 mmHg 91%
    22:00 -24°C° 0 mm 5 mps 758 mmHg 91%
    23:00 -24°C° 0 mm 5 mps 758 mmHg 91%

    28 February, Wednesday

    Time Temperature Precipitation Wind Pressure Humidity
    00:00 -24°C° 0 mm 6 mps 758 mmHg 91%
    01:00 -24°C° 0 mm 6 mps 758 mmHg 91%
    02:00 -26°C° 0 mm 6 mps 758 mmHg 91%
    03:00 -26°C° 0 mm 6 mps 758 mmHg 90%
    04:00 -26°C° 0 mm 6 mps 757 mmHg 90%
    05:00 -26°C° 0 mm 6 mps 757 mmHg 90%
    06:00 -26°C° 0 mm 7 mps 757 mmHg 89%
    07:00 -26°C° 0 mm 7 mps 757 mmHg 88%
    08:00 -25°C° 0 mm 7 mps 757 mmHg 87%
    09:00 -26°C° 0 mm 8 mps 757 mmHg 85%
    10:00 -24°C° 0 mm 8 mps 756 mmHg 84%
    11:00 -23°C° 0 mm 8 mps 756 mmHg 82%
    12:00 -22°C° 0 mm 8 mps 756 mmHg 82%
    13:00 -21°C° 0 mm 8 mps 755 mmHg 82%
    14:00 -21°C° 0 mm 8 mps 755 mmHg 82%
    15:00 -21°C° 0.1 mm 8 mps 755 mmHg 83%
    16:00 -21°C° 0.1 mm 8 mps 754 mmHg 84%
    17:00 -21°C° 0.1 mm 8 mps 754 mmHg 85%
    18:00 -20°C° 0.1 mm 7 mps 754 mmHg 86%
    19:00 -21°C° 0.1 mm 7 mps 754 mmHg 86%
    20:00 -21°C° 0.1 mm 7 mps 754 mmHg 87%
    21:00 -21°C° 0.1 mm 7 mps 754 mmHg 87%
    22:00 -21°C° 0.1 mm 7 mps 754 mmHg 88%
    23:00 -21°C° 0.1 mm 6 mps 754 mmHg 88%

    1 March, Thursday

    Time Temperature Precipitation Wind Pressure Humidity
    00:00 -21°C° 0.1 mm 6 mps 754 mmHg 89%
    01:00 -21°C° 0.1 mm 6 mps 754 mmHg 89%
    02:00 -21°C° 0.1 mm 6 mps 754 mmHg 89%
    03:00 -21°C° 0 mm 6 mps 754 mmHg 90%
    04:00 -22°C° 0 mm 6 mps 754 mmHg 90%
    05:00 -22°C° 0 mm 6 mps 754 mmHg 90%
    06:00 -22°C° 0.1 mm 6 mps 754 mmHg 91%
    07:00 -21°C° 0.1 mm 5 mps 754 mmHg 91%
    08:00 -20°C° 0.1 mm 5 mps 754 mmHg 91%
    09:00 -20°C° 0 mm 5 mps 754 mmHg 91%
    10:00 -19°C° 0 mm 5 mps 754 mmHg 91%
    11:00 -18°C° 0 mm 5 mps 754 mmHg 91%
    12:00 -17°C° 0 mm 5 mps 754 mmHg 91%
    13:00 -15°C° 0 mm 5 mps 754 mmHg 91%
    14:00 -15°C° 0 mm 5 mps 753 mmHg 91%
    15:00 -15°C° 0 mm 5 mps 753 mmHg 91%
    16:00 -15°C° 0 mm 5 mps 753 mmHg 91%
    17:00 -15°C° 0 mm 6 mps 752 mmHg 91%
    18:00 -16°C° 0.2 mm 6 mps 752 mmHg 91%
    19:00 -16°C° 0.2 mm 6 mps 752 mmHg 90%
    20:00 -16°C° 0.2 mm 6 mps 752 mmHg 90%
    21:00 -16°C° 0.2 mm 6 mps 752 mmHg 90%
    22:00 -16°C° 0.2 mm 6 mps 751 mmHg 90%
    23:00 -16°C° 0.2 mm 6 mps 751 mmHg 89%

    2 March, Friday

    Time Temperature Precipitation Wind Pressure Humidity
    00:00 -16°C° 0.1 mm 6 mps 751 mmHg 88%
    01:00 -16°C° 0.1 mm 6 mps 751 mmHg 87%
    02:00 -16°C° 0.1 mm 6 mps 750 mmHg 86%
    03:00 -15°C° 0 mm 5 mps 750 mmHg 86%
    04:00 -15°C° 0 mm 5 mps 750 mmHg 86%
    05:00 -17°C° 0 mm 5 mps 750 mmHg 87%
    06:00 -17°C° 0 mm 5 mps 749 mmHg 87%
    07:00 -17°C° 0 mm 5 mps 749 mmHg 87%
    08:00 -17°C° 0 mm 5 mps 749 mmHg 87%
    09:00 -15°C° 0.1 mm 5 mps 749 mmHg 87%
    10:00 -14°C° 0.1 mm 5 mps 749 mmHg 87%
    11:00 -14°C° 0.1 mm 5 mps 749 mmHg 87%
    12:00 -13°C° 0.1 mm 5 mps 748 mmHg 88%
    13:00 -12°C° 0.1 mm 5 mps 748 mmHg 88%
    14:00 -11°C° 0.1 mm 4 mps 748 mmHg 89%
    15:00 -11°C° 0.2 mm 4 mps 747 mmHg 90%
    16:00 -11°C° 0.2 mm 4 mps 747 mmHg 91%
    17:00 -11°C° 0.2 mm 4 mps 747 mmHg 92%
    18:00 -11°C° 0.1 mm 4 mps 747 mmHg 92%
    19:00 -11°C° 0.1 mm 4 mps 747 mmHg 93%
    20:00 -12°C° 0.1 mm 4 mps 746 mmHg 94%
    21:00 -12°C° 0 mm 3 mps 746 mmHg 94%
    22:00 -12°C° 0 mm 3 mps 746 mmHg 94%
    23:00 -13°C° 0 mm 3 mps 746 mmHg 95%
    Show more